Regional Weather Roundup
Issued by NWS

Home | Current Version | Previous Version | Graphics & Text | Print | Product List | Glossary On
Versions: 1 2 3 4 5 6 7 8 9 10 11 12 13 14 15 16 17 18 19 20 21 22 23 24 25 26 27 28 29 30 31 32 33 34 35 36 37 38 39 40 41 42 43 44 45 46 47 48 49 50
948
ASUS45 KPSR 051710
RWRAZ

ARIZONA HOURLY REGIONAL WEATHER ROUNDUP
NATIONAL WEATHER SERVICE PHOENIX AZ
1000 AM MST MON DEC 05 2016

NOTE: FAIR INDICATES FEW OR NO CLOUDS BELOW 12,000 FEET WITH NO
SIGNIFICANT WEATHER AND/OR OBSTRUCTIONS TO VISIBILITY.

AZZ001>003-036-051800-
NORTHWEST ARIZONA

CITY           SKY/WX    TMP DP  RH WIND       PRES   REMARKS
BULLHEAD CITY    N/A     50  28  43 SW6       29.96R
KINGMAN        NOT AVBL
$$

AZZ004>008-015-016-018-051800-
NORTH CENTRAL ARIZONA

CITY           SKY/WX    TMP DP  RH WIND       PRES   REMARKS
GRAND CANYON   FAIR      40  18  41 SW12      29.97S WCI  33
PRESCOTT       FAIR      49  14  24 N3        29.99R
FLAGSTAFF      FAIR      39  14  36 SW10      30.00R WCI  32
PAYSON         FAIR      48  16  27 VRB5      30.03R
PAGE           FAIR      40  12  32 CALM      29.92R
$$

AZZ009>014-017-051800-
NORTHEAST ARIZONA

CITY           SKY/WX    TMP DP  RH WIND       PRES   REMARKS
WINSLOW        FAIR      38  20  48 E8        29.97  WCI  32
SAINT JOHNS    FAIR      43  20  39 NE6       29.95S
WINDOW ROCK    FAIR      37  23  56 CALM      29.94S
SHOW LOW       FAIR      43  12  28 S18       30.01R
$$

AZZ023-051800-
GREATER PHOENIX AREA

CITY           SKY/WX    TMP DP  RH WIND       PRES   REMARKS
PHOENIX        FAIR      55  24  30 SE8       29.95R
BUCKEYE        FAIR      55  23  28 E14       29.98R
GLENDALE       PTSUNNY   52  28  40 CALM      29.98R
LUKE AFB       FAIR      53  27  37 N5        29.96R
DEER VALLEY    FAIR      56  22  26 CALM      29.95R
SCOTTSDALE     FAIR      51  28  41 SE3       29.97R
MESA-FALCON      N/A    N/A N/A N/A NE6       29.95
MESA-GATEWAY   MOSUNNY   54  27  35 S8        29.98R
$$

AZZ027-028-051800-
SOUTHWEST MARICOPA COUNTY AND PINAL COUNTY

CITY           SKY/WX    TMP DP  RH WIND       PRES   REMARKS
CASA GRANDE    NOT AVBL
GILA BEND      SUNNY     52  24  33 NE3       29.94S
$$

AZZ503-504-507>509-051800-
SOUTHEAST ARIZONA

CITY           SKY/WX    TMP DP  RH WIND       PRES   REMARKS
TUCSON         FAIR      57  25  29 S6        29.99S
DAVIS-MONTHAN  FAIR      57  24  27 E7        29.98S
RYAN FIELD     SUNNY     52  27  37 E9        29.99
NOGALES        FAIR      57  27  31 S8        30.02S
SIERRA VISTA   FAIR      56  23  28 E6        30.02S
DOUGLAS        FAIR      44  32  62 S7        30.04
SAFFORD        FAIR      45  27  49 CALM      29.99F
$$

AZZ020-021-025-026-031-051800-
SOUTHWEST ARIZONA

CITY           SKY/WX    TMP DP  RH WIND       PRES   REMARKS
YUMA           FAIR      57  23  26 NE5       29.93R
$$

CAZ031-033-041-043-047-048-061-051800-
SOUTHERN CALIFORNIA

CITY           SKY/WX    TMP DP  RH WIND       PRES   REMARKS
DOWNTOWN L.A.  PTSUNNY   57  47  69 E5        29.98R
L.A. AIRPORT   PTSUNNY   56  53  90 E6        29.97S FOG
BURBANK        FAIR      52  29  41 S3        29.97R
ONTARIO        CLOUDY    53  34  48 CALM      29.98R
RIVERSIDE      FAIR      52  37  56 CALM      29.99R
PALM SPRINGS   FAIR      57  32  38 CALM      29.95R
EL CENTRO NAS  FAIR      50  24  36 CALM      29.94R
IMPERIAL       FAIR      55  28  35 SE7       29.92R
BLYTHE         FAIR      50  23  34 NE3       29.96
NEEDLES        FAIR      55  20  25 CALM      29.96R
$$

NVZ020-UTZ003-051800-
SOUTHERN NEVADA-UTAH

CITY           SKY/WX    TMP DP  RH WIND       PRES   REMARKS
LAS VEGAS      PTSUNNY   49  16  26 NE3       29.95R
SALT LAKE CITY PTSUNNY   31  15  52 N15       30.06R WCI  20
$$

NMZ009-TXZ055-051800-
NEW MEXICO-WEST TEXAS

CITY           SKY/WX    TMP DP  RH WIND       PRES   REMARKS
ALBUQUERQUE    MOSUNNY   38  19  46 CALM      29.92S
EL PASO        FAIR      50  30  46 W8        29.93F
$$


........................KEY........................
SKY/WX - SKY CONDITION/WEATHER
TMP    - TEMPERATURE IN FAHRENHEIT
DP     - DEW POINT IN FAHRENHEIT
RH     - RELATIVE HUMIDITY IN PERCENT
WIND   - DIRECTION AND SPEED IN MILES PER HOUR (MPH)
VRB    - VARIABLE WIND DIRECTION
PRES   - MEAN SEA LEVEL PRESSURE IN INCHES OF MERCURY
         F - FALLING PRESSURE   R - RISING PRESSURE
         S - STEADY PRESSURE
VSB    - VISIBILITY IN MILES
HX     - HEAT INDEX IN FAHRENHEIT
WCI    - WIND CHILL INDEX IN FAHRENHEIT
TC     - TEMPERATURE IN CELSIUS WHICH IS ALSO KNOWN AS
         TEMPERATURE IN CENTIGRADE
AFB    - AIR FORCE BASE
         LUKE AFB IS LUKE AIR FORCE BASE
         DAVIS-MONTHAN IS DAVIS-MONTHAN AIR FORCE BASE
NAS    - NAVAL AIR STATION
         EL CENTRO NAS IS EL CENTRO NAVAL AIR STATION
N/A    - NOT AVAILABLE





USA.gov is the U.S. government's official web portal to all federal, state and local government web resources and services.